User: anonymous   Login
Location: L�Ave Maria
(50.7161°N, 1.5911°E)
Time: 07:32:10
(UTC+00:00)
Language:

Cosmos 2344 - Orbit

View from above orbital plane
View from above orbital plane
View from above satellite
View from above satellite

Ground track
Ground track

The orbit data is extracted from the following two-line orbital elements,

1 24827U 97028A   20272.86934904 -.00000170 +00000-0 -15213-2 0  9999
2 24827 063.3125 103.1349 1028406 043.2550 025.8893 11.07915656943288
Epoch (UTC): 28 September 2020 20:51:51
Eccentricity: 0.1028406
inclination: 63.3125°
perigee height: 1247 km
apogee height: 2995 km
right ascension of ascending node: 103.1349°
argument of perigee: 43.2550°
revolutions per day: 11.07915656
mean anomaly at epoch: 25.8893°
orbit number at epoch: 94328

The dashed part of the orbit path shows where the satellite is in the earth's shadow,  

DLR